Home   Weather   Kangerlussuaq   Past weeks
Flag for Greenland

Past Weather in Kangerlussuaq, Greenland — Yesterday and Last 2 Weeks

Now
46 °F

Cool.


Feels Like: 42 °F
Forecast: 68 / 47 °F
Wind: 8 mph from Northeast

Location: Sdr Stroemfjord

Current Time: Jul 23, 2019 at 2:10:36 am

Latest Report: Jul 23, 2019 at 12:50 am


Visibility: N/A

Pressure: 29.80 "Hg

Humidity: 66%

Dew Point: 36 °F

Location of KangerlussuaqLocation

Past Weather in Kangerlussuaq — Graph

°F

Kangerlussuaq Temperature Yesterday

Maximum temperature yesterday: 68 °F (at 2:50 pm)
Minimum temperature yesterday: 41 °F (at 4:50 am)
Average temperature yesterday: 56 °F

High & Low Weather Summary for the Past Weeks

 TemperatureHumidityPressure
High70 °F (Jul 8, 3:50 pm)88% (Jul 18, 7:50 pm)30.04 "Hg (Jul 18, 7:50 pm)
Low39 °F (Jul 11, 3:50 am)25% (Jul 8, 3:50 pm)29.65 "Hg (Jul 16, 6:50 pm)
Average55 °F56%29.86 "Hg
* Reported Jul 8 12:50 am — Jul 23 12:50 am, Kangerlussuaq. Weather by CustomWeather, © 2019

Note: Actual official high and low records may vary slightly from our data, if they occured in-between our weather recording intervals... More about our weather records

Advertising

Kangerlussuaq Weather History for the Previous 24 Hours

Scroll right to see more
 ConditionsComfort  
Time TempWeatherWind HumidityBarometerVisibility
12:50 am
Tue, Jul 23
46 °FCool.8 mph66%29.80 "HgN/A
11:50 pm
Mon, Jul 22
48 °FCool.12 mph62%29.80 "HgN/A
10:50 pm52 °FCool.9 mph54%29.80 "HgN/A
9:50 pm54 °FCool.10 mph51%29.80 "HgN/A
8:50 pm57 °FRefreshingly cool.12 mph51%29.80 "HgN/A
7:50 pm61 °FRefreshingly cool.10 mph45%29.80 "HgN/A
6:50 pm64 °FMild.10 mph40%29.83 "HgN/A
5:50 pm68 °FMild.9 mph35%29.83 "HgN/A
4:50 pm68 °FMild.13 mph35%29.83 "HgN/A
3:50 pm68 °FMild.12 mph35%29.83 "HgN/A
2:50 pm68 °FMild.14 mph35%29.83 "HgN/A
1:50 pm66 °FMild.12 mph37%29.83 "HgN/A
12:50 pm66 °FMild.12 mph37%29.86 "HgN/A
11:50 am63 °FMild.9 mph39%29.89 "HgN/A
10:50 am61 °FRefreshingly cool.8 mph45%29.89 "HgN/A
9:50 am57 °FRefreshingly cool.8 mph51%29.92 "HgN/A
8:50 am54 °FPassing clouds.8 mph58%29.92 "HgN/A
7:50 am50 °FCool.9 mph62%29.95 "HgN/A
6:50 am46 °FCool.7 mph71%29.95 "HgN/A
5:50 am45 °FQuite cool.8 mph76%29.95 "HgN/A
4:50 am41 °FQuite cool.8 mph81%29.95 "HgN/A
3:50 am43 °FQuite cool.8 mph81%29.92 "HgN/A
2:50 am43 °FQuite cool.9 mph76%29.92 "HgN/A
Weather by CustomWeather, © 2019

See weather overview